Volver al catálogo

ARIANE 44LP+ R/B

ActivoHEO
NORAD 23538·ROCKET BODY·🇫🇷 France

Lanzado Mar 28, 1995 desde Guiana Space Centre

Loading…

Próximos Pases (próximas 24 horas)

TLE

ActualizadoSource: Space-Track

Época: Sep 14, 2026, 05:06 UTC

1 23538U 95016C   26257.21267128  .00003600  00000-0  11868-2 0  9998
2 23538   6.3661 109.9202 6023157 151.7157 261.5270  3.97977914331342

Sigue ARIANE 44LP+ R/B en tiempo real con AllMySat

Download on the App Store